Regional Weather Roundup
Issued by NWS Jackson, KY

Home | Current Version | Previous Version | Graphics & Text | Print | Product List | Glossary On
Versions: 1 2 3 4 5 6 7 8 9 10 11 12 13 14 15 16 17 18 19 20 21 22 23 24 25 26 27
000
ASUS43 KJKL 192310
RWRJKL

EAST KENTUCKY HOURLY WEATHER ROUNDUP
NATIONAL WEATHER SERVICE JACKSON KY
700 PM EDT WED JUL 19 2017

NOTE: "FAIR" INDICATES FEW OR NO CLOUDS BELOW 12,000 FEET WITH
NO SIGNIFICANT WEATHER AND/OR OBSTRUCTIONS TO VISIBILITY.

* THESE REPORTS ARE NOT UNDER NWS QUALITY CONTROL AND MAY NOT
  REPORT WEATHER SUCH AS PRECIPITATION AND FOG.

KYZ079-080-083-085-087-088-110-112-115-119-120-200000
...EASTERN KENTUCKY...

CITY           SKY/WX    TMP DP  RH WIND       PRES   REMARKS
JACKSON        SUNNY     87  70  56 VRB3      30.11S HX  92
LONDON         SUNNY     88  65  46 NW7       30.11S HX  90
SOMERSET*      SUNNY     86  63  45 NW6       30.11S
MONTICELLO*    SUNNY     86  71  60 NW7       30.12S HX  91
WILLIAMSBURG*  CLEAR     86  64  48 NW6       30.11R
MIDDLESBORO*   SUNNY     89  69  51 CALM      30.11R HX  93
HARLAN APT*    CLEAR     88  63  42 CALM      30.12S
PIKE CO APT*     N/A     86  69  55 W3        30.11S HX  90
BIG SANDY APT* CLEAR     88  68  51 CALM      30.10R HX  91
MOREHEAD APT*  CLEAR     86  63  45 W5        30.11R
ASHLAND*         N/A    N/A N/A N/A MISG        N/A
$$

KYZ035-036-041-042-044-050-067-078-099-200000
...CENTRAL KENTUCKY...

CITY           SKY/WX    TMP DP  RH WIND       PRES   REMARKS
MT STERLING*   SUNNY     88  64  45 NW3       30.12R
FLEMING/MASON* SUNNY     87  62  42 W8        30.10S
DANVILLE*      SUNNY     88  63  42 NW6       30.12R
LEXINGTON      SUNNY     88  65  46 NW5       30.10S HX  90
FRANKFORT      SUNNY     88  64  44 NW5       30.09S
LOUISVILLE     PTSUNNY   90  67  46 N9        30.07S HX  93
LEBANON*         N/A     86  66  51 NW7       30.10S
GLASGOW*       PTSUNNY   88  67  50 CALM      30.10S HX  91
BOWLING GREEN  MOSUNNY   90  73  57 NE3       30.09S HX  98
$$

KYZ091>093-OHZ055-061-077-WVZ005-015-034-035-042-200000
...SOUTHERN OHIO/WEST VIRGINIA...

CITY           SKY/WX    TMP DP  RH WIND       PRES   REMARKS
COVINGTON      MOSUNNY   86  68  54 W8        30.09F
COLUMBUS       SUNNY     88  66  48 W10       30.06S HX  90
DAYTON         MOSUNNY   86  64  47 N5        30.10F
WILMINGTON     MOSUNNY   86  68  54 W10       30.09S
HUNTINGTON     PTSUNNY   89  70  53 NW6       30.06S HX  94
CHARLESTON     MOSUNNY   85  67  54 W3        30.07S
PINEVILLE*     SUNNY     81  70  69 MISG      30.17R
BECKLEY        SUNNY     84  61  45 N5        30.17R
BLUEFIELD      SUNNY     81  60  48 NW6       30.20R
LOGAN CO APT*    N/A     86  70  58 CALM      30.12R HX  90
$$

VAZ002-007-008-TNZ017-027-036-066-071-200000
...SOUTHWEST VIRGINIA/EAST TENNESSEE...

CITY           SKY/WX    TMP DP  RH WIND       PRES   REMARKS
WISE*          SUNNY     82  61  47 N6        30.20R
JONESVILLE*      N/A     90  64  43 NW5       30.13S HX  91
ABINGDON*      SUNNY     88  61  39 NW6       30.15R
BRISTOL        MOSUNNY   91  60  35 W7        30.11R HX  90
MORRISTOWN*    CLEAR     90  64  43 N7        30.10S HX  91
SEVIERVILLE*   PTCLDY    91  61  35 W5        30.08S HX  91
KNOXVILLE      MOSUNNY   91  64  40 W8        30.08S HX  92
LAFOLLETTE*    CLEAR     88  66  48 VRB3      30.13S HX  90
OAK RIDGE      SUNNY     92  62  36 W5        30.10S HX  92
CROSSVILLE     SUNNY     85  66  53 NW7       30.17R
NASHVILLE      PTSUNNY   81  73  76 E6        30.11R
$$

...KEY TO REMARKS...
VSB - VISIBILITY IN MILES
WCI - WIND CHILL INDEX
HX  - HEAT INDEX

$$




USA.gov is the U.S. government's official web portal to all federal, state and local government web resources and services.